Location: Peterborough
(44.3091°N, 78.3197°W)
Time: 07:23:22
(UTC-04:00)

A-11 Canister half - Pass Details

Date: 23 March 2023
Orbit: 1513 x 1686 km, 47.2° (Epoch: 04 June)

Event Time Altitude Azimuth Distance (km) Brightness Sun altitude
Exits shadow 06:24:05 - 293° (WNW) 4,689 11.0 -9.2°
Reaches altitude 10° 06:26:44 10° 286° (WNW) 3,954 10.6 -8.8°
Maximum altitude 06:35:30 35° 227° (SW) 2,485 9.7 -7.2°
Drops below altitude 10° 06:44:08 10° 166° (SSE) 3,884 11.2 -5.7°
Sets 06:47:36 0° 158° (SSE) 4,846 11.8 -5.1°
